[[{"header":{"parameterUnit":"m.s-1","parameterCategory":1,"la1":30.2991,"la2":30.254,"lo1":-89.0895,"lo2":-89.0444,"dy":0.0017,"dx":0.0017,"nx":28,"ny":28,"refTime":"2024-03-13T03:00:00:Z","depth":0,"parameterNumber":2,"parameterNumberName":"U-component_of_WINDS"},"data":[0,0,0,0,0,0,0,0,0,0,0,0,0,0,0,0,0,0,0,0,0,0,0,0,0,0,0,0,0,0,0,0,0,0,0,0,0,0,0,0,0,0,0,0,0,0,0,0,0,0,0,0,0,0,0,0,0,0,-5.1714,-5.1714,0,-5.1776,-5.1776,-5.1777,-5.1693,-5.169,-5.1687,-5.1684,-5.1747,-5.1751,-5.1756,0,0,0,0,0,0,0,0,0,0,0,0,0,-5.1523,-5.1527,-5.1713,-5.1714,-5.1715,-5.1776,-5.1776,-5.1777,-5.1693,-5.1689,-5.1686,-5.1682,-5.1745,-5.1751,-5.1756,0,0,0,0,0,0,0,0,0,0,0,0,0,-5.1597,-5.1528,-5.1713,-5.168,-5.1678,-5.1775,-5.1776,-5.1778,-5.1694,-5.1689,-5.1685,-5.1681,-5.1744,-5.175,-5.1757,-5.1889,0,0,-5.1778,-5.178,0,0,0,0,0,0,0,0,-5.1593,-5.1605,-5.1684,-5.1683,-5.168,-5.1722,-5.1732,-5.1815,-5.1695,-5.1688,-5.1684,-5.1678,-5.1742,-5.1749,-5.177,-5.1892,-5.1895,-5.1778,-5.1782,-5.1785,-5.1787,0,0,0,0,0,0,0,-5.1588,-5.1601,-5.1738,-5.1686,-5.1683,-5.1663,-5.1668,-5.1748,-5.174,-5.1688,-5.1682,-5.1691,-5.174,-5.1764,-5.1771,-5.1896,-5.1778,-5.1784,-5.1788,-5.1791,-5.2131,-5.2136,0,0,0,0,0,0,-5.1587,-5.1598,-5.1736,-5.174,-5.1625,-5.167,-5.1676,-5.1713,-5.1739,-5.1738,-5.1695,-5.1687,-5.1755,-5.1763,-5.1773,-5.193,-5.1785,-5.1791,-5.1795,-5.2126,-5.2132,-5.2138,0,0,0,0,0,0,-5.1583,-5.16,-5.1733,-5.1667,-5.1683,-5.1678,-5.172,-5.1717,-5.174,-5.1743,-5.1742,-5.172,-5.1752,-5.1764,-5.1861,-5.1931,-5.1794,-5.1801,-5.212,-5.2128,-5.2135,-5.2244,0,0,0,0,0,0,-5.1578,-5.1599,-5.1649,-5.1669,-5.1687,-5.182,-5.1724,-5.1721,-5.1752,-5.1742,-5.1767,-5.1767,-5.1749,-5.1852,-5.1868,-5.1937,-5.1806,-5.2114,-5.2124,-5.2133,-5.2234,-5.2254,-5.2272,0,0,0,0,0,-5.1572,-5.1677,-5.1652,-5.1669,-5.1749,-5.1825,-5.1835,-5.1812,-5.1758,-5.1808,-5.1811,-5.1766,-5.1922,-5.1863,-5.188,-5.1953,-5.211,-5.2121,-5.2132,-5.2226,-5.225,-5.2271,0,0,0,0,0,0,-5.1664,-5.1679,-5.1651,-5.1766,-5.1795,-5.181,-5.1872,-5.1839,-5.1883,-5.1872,-5.1842,-5.1848,-5.1953,-5.1963,-5.1897,-5.2083,-5.2007,-5.2022,-5.2072,-5.2095,-5.2114,-5.2107,-5.1812,0,0,0,0,0,-5.1698,-5.1758,-5.1768,-5.1868,-5.1885,-5.1877,-5.1909,-5.1889,-5.1918,-5.1929,-5.1939,-5.1968,-5.2024,-5.206,-5.2112,-5.2237,-5.2241,-5.2296,-5.2314,-5.233,-5.2342,-5.2409,-5.2434,-5.2175,-5.2175,-5.2174,0,0,-5.1768,-5.1783,-5.1823,-5.1888,-5.1907,-5.1971,-5.1887,-5.1957,-5.2004,-5.194,-5.2032,-5.2041,-5.2072,-5.2184,-5.2234,-5.2196,-5.2415,-5.2344,-5.2356,-5.236,-5.2423,-5.2448,-5.247,-5.2182,-5.2181,-5.218,0,0,-5.1927,-5.1946,-5.2031,-5.2054,-5.2086,-5.208,-5.2102,-5.2123,-5.2126,-5.2219,-5.2173,-5.2229,-5.2325,-5.2349,-5.2374,-5.2547,-5.2507,-5.2565,-5.2661,-5.2727,-5.2748,-5.2766,-5.2826,-5.2848,-5.2578,-5.2579,-5.2579,0,-5.2009,-5.2103,-5.2079,-5.2154,-5.2183,-5.213,-5.2217,-5.224,-5.2287,-5.2309,-5.2267,-5.2387,-5.2404,-5.2521,-5.2564,-5.2587,-5.2609,-5.256,-5.2747,-5.2764,-5.2781,-5.2838,-5.2861,-5.2585,-5.2585,-5.2584,-5.2583,0,-5.2202,-5.2268,-5.2334,-5.2382,-5.2419,-5.25,-5.2489,-5.253,-5.2509,-5.2509,-5.2605,-5.2625,-5.2679,-5.2706,-5.2686,-5.2821,-5.2797,-5.2751,-5.2673,-5.2812,-5.2866,-5.2888,-5.2595,-5.2592,-5.259,-5.2589,0,0,-5.2416,-5.2453,-5.2477,-5.2499,-5.2532,-5.2583,-5.2662,-5.2716,-5.2752,-5.2788,-5.2853,-5.2938,-5.2896,-5.2925,-5.2907,-5.2966,-5.3101,-5.2913,-5.2913,-5.2946,-5.3251,-5.3283,-5.3309,-5.3077,-5.3081,-5.3084,-5.3248,0,-5.2574,-5.271,-5.2693,-5.2823,-5.2884,-5.2837,-5.2906,-5.2934,-5.2938,-5.299,-5.2993,-5.3053,-5.2995,-5.3012,-5.3068,-5.3073,-5.3162,-5.3061,-5.3136,-5.3139,-5.3126,-5.3337,-5.337,-5.3523,-5.3269,-5.3272,-5.3275,0,-5.2775,-5.2819,-5.2956,-5.2981,-5.3006,-5.3068,-5.3117,-5.3169,-5.3201,-5.3199,-5.3234,-5.3207,-5.3286,-5.321,-5.332,-5.3252,-5.3283,-5.329,-5.3296,-5.3299,-5.3213,-5.3343,-5.3571,-5.3593,-5.3308,-5.3305,-5.3303,0,-5.2915,-5.3009,-5.3103,-5.3123,-5.3156,-5.3201,-5.3217,-5.3245,-5.3279,-5.3323,-5.3345,-5.3398,-5.3426,-5.3468,-5.3457,-5.3403,-5.3569,-5.3492,-5.3569,-5.357,-5.3603,-5.36,-5.3836,-5.3628,-5.3628,-5.3627,-5.3627,0,-5.3091,-5.3176,-5.3166,-5.3224,-5.3318,-5.33,-5.3394,-5.3404,-5.343,-5.3489,-5.3453,-5.3509,-5.3492,-5.3548,-5.354,-5.3632,-5.3645,-5.3646,-5.3642,-5.3647,-5.3647,-5.3664,-5.3651,-5.3633,-5.3632,-5.3631,-5.363,0,-5.3261,-5.3258,-5.3357,-5.3382,-5.3391,-5.3459,-5.348,-5.3534,-5.3537,-5.3612,-5.3628,-5.3631,-5.3695,-5.3689,-5.3761,-5.3756,-5.3869,-5.3854,-5.3858,-5.3853,-5.393,-5.3922,-5.4182,-5.4215,-5.3989,-5.3991,-5.3993,0,-5.3371,-5.3436,-5.3468,-5.3506,-5.3525,-5.3586,-5.3621,-5.3607,-5.3645,-5.3689,-5.3738,-5.38,-5.3847,-5.3952,-5.3961,-5.4016,-5.4,-5.4088,-5.4008,-5.4012,-5.3999,-5.3994,-5.4,-5.4102,-5.4105,-5.4107,-5.4109,0,-5.3567,-5.3564,-5.3616,-5.367,-5.3714,-5.3755,-5.3792,-5.3825,-5.3815,-5.386,-5.3926,-5.3963,-5.4038,-5.4099,-5.4152,-5.4169,-5.4137,-5.4135,-5.4155,-5.4159,-5.4158,-5.4157,-5.3898,-5.4128,-5.4126,-5.4125,-5.4124,-5.4123,-5.3709,-5.3764,-5.3796,-5.3857,-5.3884,-5.3921,-5.3973,-5.3983,-5.4038,-5.4097,-5.4087,-5.416,-5.4194,-5.4262,-5.4285,-5.4342,-5.431,-5.434,-5.4347,-5.4354,-5.4362,-5.4152,-5.4353,-5.4352,-5.4351,-5.4351,-5.4351,0,-5.39,-5.392,-5.3976,-5.403,-5.4079,-5.4048,-5.4089,-5.4131,-5.4196,-5.423,-5.4279,-5.4355,-5.4415,-5.443,-5.4488,-5.4532,-5.4519,-5.4547,-5.4542,-5.4546,-5.4388,-5.4363,-5.4556,-5.4556,-5.4556,-5.4556,-5.4556,-5.4556,-5.4005,-5.4097,-5.4098,-5.4204,-5.4223,-5.4295,-5.4321,-5.4355,-5.4383,-5.4469,-5.452,-5.453,-5.4557,-5.4617,-5.4671,-5.4674,-5.4696,-5.4729,-5.4727,-5.4578,-5.4557,-5.4537,-5.4514,-5.4735,-5.4735,-5.4879,-5.488,-5.4881]},{"header":{"parameterUnit":"m.s-1","parameterCategory":1,"la1":30.2991,"la2":30.254,"lo1":-89.0895,"lo2":-89.0444,"dy":0.0017,"dx":0.0017,"nx":28,"ny":28,"refTime":"2024-03-13T03:00:00:Z","depth":0,"parameterNumber":3,"parameterNumberName":"V-component_of_WINDS"},"data":[0,0,0,0,0,0,0,0,0,0,0,0,0,0,0,0,0,0,0,0,0,0,0,0,0,0,0,0,0,0,0,0,0,0,0,0,0,0,0,0,0,0,0,0,0,0,0,0,0,0,0,0,0,0,0,0,0,0,1.0885,1.0886,0,1.0891,1.0891,1.0891,1.0898,1.0898,1.0899,1.0899,1.0901,1.09,1.09,0,0,0,0,0,0,0,0,0,0,0,0,0,1.0882,1.0882,1.0885,1.0886,1.0886,1.0891,1.0891,1.0891,1.0898,1.0898,1.0899,1.0899,1.0901,1.09,1.09,0,0,0,0,0,0,0,0,0,0,0,0,0,1.0885,1.0882,1.0885,1.089,1.0891,1.0891,1.0891,1.0891,1.0898,1.0898,1.0899,1.0899,1.0901,1.09,1.09,1.0895,0,0,1.09,1.09,0,0,0,0,0,0,0,0,1.0884,1.0885,1.0889,1.089,1.089,1.0894,1.089,1.0892,1.0898,1.0895,1.0899,1.0899,1.0898,1.0898,1.0898,1.0895,1.0895,1.09,1.09,1.09,1.09,0,0,0,0,0,0,0,1.0884,1.0885,1.0887,1.0889,1.089,1.0892,1.0892,1.089,1.0895,1.0895,1.0896,1.0897,1.0898,1.0899,1.0899,1.0895,1.09,1.09,1.09,1.09,1.0891,1.0891,0,0,0,0,0,0,1.0884,1.0884,1.0887,1.0888,1.0888,1.0892,1.0892,1.0893,1.0895,1.0896,1.0897,1.0897,1.0899,1.0899,1.0899,1.0895,1.09,1.09,1.09,1.0892,1.0891,1.0891,0,0,0,0,0,0,1.0883,1.0884,1.0887,1.0886,1.0887,1.0891,1.0892,1.0893,1.0893,1.0896,1.0897,1.0896,1.0899,1.0899,1.0897,1.0895,1.09,1.09,1.0892,1.0892,1.0891,1.0886,0,0,0,0,0,0,1.0883,1.0884,1.0882,1.0886,1.0887,1.0885,1.0891,1.0893,1.0893,1.0894,1.0896,1.0896,1.0899,1.0897,1.0897,1.0895,1.0899,1.0892,1.0892,1.0891,1.0886,1.0885,1.0885,0,0,0,0,0,1.0883,1.0878,1.0881,1.0882,1.0884,1.0885,1.0886,1.089,1.0893,1.0891,1.0894,1.0896,1.0895,1.0897,1.0897,1.0894,1.0892,1.0892,1.0891,1.0886,1.0885,1.0885,0,0,0,0,0,0,1.0871,1.0879,1.0882,1.0879,1.0882,1.0887,1.0884,1.0888,1.0889,1.0889,1.0894,1.0894,1.0892,1.0893,1.0895,1.0891,1.0894,1.0894,1.089,1.089,1.0889,1.0889,1.0899,0,0,0,0,0,1.0869,1.087,1.0876,1.0872,1.0874,1.0879,1.0879,1.0883,1.0885,1.0886,1.0888,1.089,1.089,1.089,1.089,1.0887,1.0888,1.0885,1.0884,1.0884,1.0883,1.0884,1.0883,1.089,1.089,1.089,0,0,1.0863,1.0867,1.0867,1.087,1.0873,1.0873,1.0879,1.0879,1.088,1.0885,1.0884,1.0886,1.0889,1.0887,1.0886,1.0887,1.0882,1.0883,1.0883,1.0883,1.0883,1.0883,1.0882,1.089,1.089,1.089,0,0,1.0852,1.0855,1.0854,1.0857,1.0862,1.0866,1.0865,1.087,1.0873,1.0872,1.0877,1.0878,1.0878,1.088,1.0881,1.0876,1.0879,1.0875,1.0871,1.0872,1.0871,1.0871,1.087,1.087,1.0875,1.0875,1.0875,0,1.0844,1.0845,1.0852,1.0853,1.0855,1.0862,1.0861,1.0864,1.0867,1.0869,1.0871,1.0873,1.0875,1.0875,1.0874,1.0874,1.0875,1.0875,1.0871,1.0871,1.087,1.087,1.0869,1.0875,1.0875,1.0875,1.0875,0,1.0836,1.0837,1.0835,1.0841,1.0843,1.0843,1.085,1.0851,1.0855,1.0859,1.086,1.0863,1.0865,1.0866,1.0868,1.0867,1.0868,1.087,1.0874,1.0869,1.0869,1.0869,1.0874,1.0874,1.0874,1.0875,0,0,1.0815,1.0828,1.0827,1.0831,1.0839,1.084,1.084,1.0845,1.0846,1.0849,1.0851,1.0852,1.0856,1.0857,1.0861,1.0861,1.0859,1.0864,1.0864,1.0864,1.0859,1.0857,1.0857,1.0861,1.0861,1.0861,1.0859,0,1.0807,1.081,1.0817,1.0818,1.082,1.0829,1.083,1.0835,1.0839,1.0842,1.0847,1.0848,1.0852,1.0854,1.0855,1.0859,1.0858,1.0859,1.0863,1.0863,1.0862,1.0856,1.0854,1.0851,1.0859,1.0859,1.0859,0,1.0796,1.0801,1.0803,1.0813,1.0814,1.0815,1.0821,1.0823,1.0829,1.0833,1.0836,1.0841,1.0844,1.0847,1.0851,1.0851,1.0854,1.0856,1.0856,1.0857,1.086,1.0857,1.085,1.085,1.0858,1.0858,1.0858,0,1.0783,1.079,1.0793,1.0796,1.0807,1.0808,1.0812,1.0819,1.0822,1.0827,1.0829,1.0834,1.0836,1.084,1.0847,1.0848,1.085,1.0854,1.0853,1.0853,1.0852,1.0852,1.0847,1.0853,1.0853,1.0853,1.0853,0,1.0772,1.0773,1.0787,1.0789,1.0791,1.08,1.0801,1.0807,1.0813,1.0816,1.0824,1.0826,1.0835,1.0839,1.0844,1.0847,1.0847,1.0851,1.0852,1.085,1.085,1.0851,1.0852,1.0853,1.0853,1.0853,1.0853,0,1.0757,1.0767,1.077,1.0782,1.0785,1.0786,1.0796,1.0798,1.0805,1.0809,1.081,1.082,1.0825,1.0832,1.0839,1.0842,1.0845,1.0847,1.0843,1.0844,1.0844,1.0844,1.0839,1.084,1.0845,1.0845,1.0845,0,1.0749,1.0751,1.0764,1.0768,1.0773,1.0778,1.0782,1.0792,1.0796,1.0805,1.0806,1.0813,1.0818,1.0826,1.0833,1.0839,1.0841,1.0839,1.0842,1.0841,1.0842,1.0842,1.0843,1.0838,1.0838,1.0838,1.0838,0,1.0736,1.0742,1.0748,1.0756,1.0762,1.0768,1.0775,1.0778,1.0789,1.0794,1.08,1.0805,1.0813,1.082,1.0827,1.0832,1.0837,1.0838,1.0838,1.0836,1.0834,1.0837,1.0842,1.0837,1.0837,1.0837,1.0837,1.0837,1.0725,1.0728,1.0738,1.0746,1.0753,1.076,1.0764,1.0772,1.0778,1.0787,1.0793,1.0799,1.0808,1.0819,1.0824,1.0829,1.0831,1.0831,1.0831,1.0831,1.0832,1.0834,1.083,1.083,1.083,1.083,1.083,0,1.0713,1.0721,1.0728,1.0739,1.0745,1.0752,1.0761,1.0766,1.0772,1.078,1.0787,1.0796,1.0803,1.0812,1.082,1.0823,1.0825,1.0824,1.0824,1.0826,1.0829,1.0828,1.0822,1.0822,1.0822,1.0822,1.0822,1.0822,1.0707,1.0713,1.072,1.073,1.0738,1.0746,1.0751,1.0758,1.0766,1.0776,1.0782,1.0789,1.0798,1.0808,1.0815,1.0817,1.082,1.0819,1.0822,1.0824,1.0825,1.0826,1.0825,1.0819,1.0819,1.0819,1.0819,1.0819]}]]